map of UBA home
UBA - Airport
Location
City:  Uberaba, Minas Gerais, Brazil
Name:Mário de Almeida Franco Airport
ICAO:SBUR
IATA:UBA

Details
Type:Airport (Aerodrome, Airfield)
Use:Public/Civil
Latitude:19°45'54"S (-19.764999)
Longitude:47°57'53"W (-47.964777)
Datum:WGS 1984
Elevation:2655 ft (809 m)
Variation:21.39°W (WMM2015 magnetic declination)
-0.12° annual change
Runways:1
Longest:5771 × 148 ft (1759 × 45 m), paved

Time
Time Zone:UTC-3 (DST-2)
Local Time:

Weather
METAR:SBUR 162200Z 12005KT 9999 SCT040 30/16 Q1012
TAF:SBUR 161600Z 1618/1706 08010KT 9999 SCT045TX30/1618Z TN23/1705Z PROB40 1618/1620 02010KT SCT043 FEW045TCU PROB30 1622/1702 36006KT TSRA SCT045 FEW050CB
BECMG 1702/1704 07005KT CAVOK
RMK PGE

Related Locations
Nearby:
Farthest:MMD: 12009 mi / 19326 km
Minamidaito [Minami Daito Airport], Minamidaito Jima, 47, JP

Find:

   beyond  
but within

Other Information
Maps:
NOTAMs:
Links:
Sources:

  
  • flag of Brazil
  • flag of Minas Gerais
  

Sectional Chart

Flight Planning
at skyvector.com

Satellite Image

Google Maps Satellite view

 

Copyright © 2004-2018 Karl L. Swartz. All rights reserved.
The Great Circle Mapper name and logo are trademarks of the Great Circle Mapper.
All other trademarks mentioned herein belong to their respective owners.
Please see credits for attibutions and further copyright information.

  Follow gcmap on Facebook Follow gcmap on Twitter Follow gcmap on Google+ GCmap on LinkedIn

hCard Microformat

Geo Microformat